Wind_Speed
8 8 8 9 10 11 10 11 11 11 11 11 11 12 12 12 12 12 13 13 13 13 13 13 13 11 11 11 11 11 11 10 9 10 9 9 10 11 11 11 11 11 11
8 9 10 10 10 11 11 12 12 12 12 12 12 12 13 13 13 13 13 13 13 13 14 14 14 13 11 11 10 11 11 10 9 10 10 9 10 11 11 10 10 10 10
10 9 10 11 11 11 11 12 12 13 13 12 13 13 14 14 13 13 14 14 14 14 15 14 14 14 12 11 11 11 11 12 11 10 10 10 10 11 11 12 12 11 10
10 10 10 11 11 11 11 12 12 13 13 13 13 13 14 14 14 14 15 15 16 15 15 15 14 14 13 12 12 12 12 12 12 12 11 11 11 11 12 12 12 12 12
11 11 12 12 12 12 13 13 13 13 13 13 14 14 14 15 15 15 16 16 16 15 15 15 14 15 15 14 14 14 13 13 13 13 13 12 12 12 12 12 13 12 13
13 13 13 14 14 14 13 13 14 14 15 15 15 15 15 15 16 17 16 16 16 16 16 16 16 16 16 16 15 15 14 14 13 13 14 13 13 13 13 13 13 13 13
14 14 14 15 15 15 14 15 15 15 16 16 16 16 16 16 17 17 17 17 17 17 17 17 17 17 17 17 16 16 15 14 14 14 14 14 14 14 14 14 15 15 14
15 15 16 16 15 15 15 16 16 16 16 16 17 17 17 17 17 18 18 18 18 18 18 18 18 18 17 17 17 16 16 16 15 15 15 15 16 16 15 16 15 15 15
16 17 17 16 16 16 16 17 17 17 17 17 18 18 18 18 18 18 18 18 18 18 19 19 19 19 19 18 18 18 17 17 17 16 16 16 16 16 16 16 17 17 17
17 17 18 17 18 18 18 18 18 19 19 19 19 18 18 19 18 18 18 19 19 19 19 19 20 20 20 20 19 19 18 18 18 18 18 17 17 17 17 17 17 18 18
19 19 19 19 19 19 19 19 19 20 20 19 19 19 19 19 19 19 19 19 19 19 19 19 20 20 20 20 20 20 19 19 19 19 19 18 18 17 17 17 17 17 17
19 20 20 19 19 19 19 20 20 20 20 19 20 20 20 20 20 20 19 19 19 19 19 20 20 20 20 20 20 20 20 20 20 19 19 19 18 18 18 17 17 18 18
20 20 21 21 21 21 20 21 21 21 20 20 20 21 21 21 21 21 21 20 19 19 19 19 20 20 20 19 20 20 21 21 21 20 20 20 19 19 19 19 19 18 18
22 22 22 22 21 21 21 22 22 21 21 21 21 21 21 22 22 22 21 21 21 20 20 20 20 20 21 20 20 21 21 21 21 21 20 21 21 20 21 21 20 20 19
23 23 23 23 22 22 23 23 22 22 22 22 22 22 22 22 22 22 22 22 21 20 19 20 20 21 21 22 21 21 21 21 21 21 21 21 21 22 22 23 23 22 21
24 24 24 23 23 22 23 23 23 23 23 23 23 22 22 22 22 22 22 21 20 20 20 20 21 21 21 22 22 22 22 22 23 23 22 23 23 23 23 24 23 23 23
24 24 24 23 23 23 23 23 23 23 24 23 23 22 22 22 22 22 21 21 21 21 21 22 22 22 22 22 23 23 23 23 23 23 24 25 25 25 24 25 25 24 24
24 24 24 24 24 24 24 24 24 24 24 23 23 23 23 23 22 22 21 22 22 23 22 22 23 23 23 23 24 24 24 24 23 24 25 25 26 25 26 25 24 24 24
24 24 24 25 25 25 24 24 25 25 24 24 24 24 24 24 23 23 23 23 23 24 23 23 24 24 24 24 24 25 25 25 24 25 25 25 25 25 25 25 25 25 25
25 25 25 25 26 26 25 25 25 25 26 26 26 26 26 26 25 25 24 23 24 24 24 24 25 25 25 26 25 26 26 26 26 26 26 26 25 25 25 26 26 26 26
25 26 26 26 26 26 26 26 26 26 26 26 26 26 27 27 27 26 25 25 25 26 26 26 26 26 27 27 27 27 27 27 28 27 27 26 26 27 27 28 28 27 27
26 26 27 27 27 27 27 27 27 27 27 27 27 27 27 27 27 28 28 28 27 27 27 27 27 27 27 27 27 28 28 28 28 28 28 27 27 28 28 28 29 29 29
27 28 28 28 27 27 28 28 27 28 28 28 28 28 29 29 29 28 29 29 28 29 30 30 29 28 28 28 28 28 28 28 29 29 29 28 29 29 29 29 29 29 29
28 28 29 29 28 28 28 29 29 29 29 29 29 29 29 29 30 29 29 30 29 29 30 30 30 29 28 29 29 29 29 30 30 30 31 30 30 30 30 30 30 30 31
29 29 30 30 29 29 30 30 29 29 30 30 30 30 30 31 31 31 31 31 30 30 30 30 30 31 30 30 31 31 31 32 32 32 33 32 31 31 31 31 32 32 33
30 30 30 30 30 30 30 30 30 30 30 31 31 31 32 32 32 32 33 32 31 31 31 31 32 32 32 32 32 32 33 34 34 34 34 34 33 33 33 34 34 35 35
Wind_Direction
297 295 291 287 283 282 284 288 291 289 288 290 289 289 290 288 290 291 292 290 289 288 288 288 286 287 286 286 285 287 286 286 285 275 270 265 261 259 255 255 254 254 257
297 296 292 288 283 282 286 291 290 288 288 289 290 290 288 288 289 287 287 287 287 287 287 286 286 285 284 282 282 283 283 279 276 273 273 269 262 261 256 256 254 254 254
292 293 289 286 285 286 288 289 291 291 290 289 289 290 290 287 286 286 286 287 288 287 285 284 284 284 280 279 280 283 281 278 276 269 265 265 264 262 260 258 257 255 256
288 289 290 289 286 287 288 290 292 293 292 290 289 290 289 287 286 286 286 288 289 288 285 283 281 280 278 278 279 279 280 279 276 272 270 267 263 263 261 260 257 256 258
285 287 290 290 291 289 287 287 289 290 291 290 290 291 290 288 289 289 290 290 290 288 284 281 278 276 277 278 279 276 276 277 275 274 272 267 263 263 262 260 259 259 260
282 285 286 289 292 291 290 288 289 290 290 290 292 293 291 290 289 289 290 290 289 286 282 280 277 275 275 276 278 278 274 273 272 272 272 270 266 264 262 261 261 259 259
279 279 283 288 289 288 290 289 290 290 292 292 292 293 291 290 291 292 291 289 287 284 282 280 277 275 274 275 278 279 276 274 272 270 269 268 267 265 263 262 262 258 256
279 279 281 286 287 288 289 289 289 290 291 291 291 292 293 291 292 293 293 289 285 283 281 279 276 274 273 275 277 276 276 275 272 268 267 266 265 265 265 263 261 257 256
280 281 283 284 285 285 287 288 287 288 287 289 290 289 291 292 291 291 291 288 286 284 281 279 276 275 273 274 274 274 273 273 271 270 268 265 264 265 265 265 261 257 256
280 281 282 283 283 283 286 287 287 286 287 288 289 289 290 292 293 291 288 286 285 284 283 280 278 276 274 273 272 272 272 271 270 269 268 266 265 265 264 263 263 259 258
280 281 280 280 281 282 284 287 288 288 287 287 286 288 290 291 292 293 291 288 286 283 281 280 278 277 275 274 272 271 271 271 270 269 270 269 267 264 263 261 262 261 260
279 278 277 278 280 282 283 285 289 288 287 287 287 287 288 289 289 292 293 291 286 282 280 278 277 277 275 274 273 272 272 271 270 270 270 270 268 266 264 263 260 262 261
278 276 276 277 278 280 283 283 285 286 284 286 286 286 287 288 289 289 290 290 287 284 282 279 278 278 275 273 271 271 271 271 270 269 269 269 267 266 266 266 262 262 262
279 278 276 276 278 280 282 283 282 283 284 283 284 286 286 286 289 289 288 289 286 283 281 280 280 278 275 272 272 270 270 270 269 269 270 270 267 265 266 266 265 266 265
281 280 280 280 279 281 282 283 281 279 282 283 283 284 286 286 288 287 287 288 285 283 281 281 281 279 275 273 274 273 271 270 269 269 269 267 267 267 267 267 266 265 265
280 281 281 282 281 281 283 282 282 281 281 281 280 282 284 286 286 286 286 285 283 282 281 279 279 278 275 273 273 273 272 271 270 269 268 267 268 269 267 267 266 265 264
278 278 279 282 283 282 282 282 283 281 280 280 279 280 282 284 284 283 284 283 282 281 281 280 278 277 275 273 273 272 273 273 272 269 268 268 269 268 266 266 265 263 264
278 278 278 280 283 283 282 281 281 281 280 278 277 278 280 282 282 280 282 283 282 281 282 281 277 275 275 275 273 271 272 273 272 270 269 268 268 268 266 266 264 264 265
279 279 278 279 281 283 283 283 281 280 279 277 275 276 278 279 280 279 281 282 282 282 282 281 278 275 276 274 273 271 272 272 273 273 271 268 268 268 267 265 264 265 265
280 280 279 280 281 282 283 284 283 281 280 276 274 275 277 277 279 279 280 280 281 281 280 279 277 276 276 274 274 272 272 273 274 274 272 269 268 267 265 264 264 263 263
280 281 281 280 281 281 282 283 282 281 281 278 276 276 276 277 277 278 279 280 280 281 281 279 279 277 276 274 273 272 271 272 273 274 273 270 268 266 265 265 264 265 265
280 281 282 281 281 281 281 281 282 280 280 279 277 275 277 277 277 277 279 280 280 280 282 281 280 279 276 274 273 272 271 271 272 273 274 273 270 268 268 266 265 265 266
279 281 282 281 281 280 280 281 281 280 280 280 278 276 276 275 277 278 279 280 281 281 281 281 279 278 277 275 274 272 271 270 270 271 272 273 272 270 267 264 264 264 265
279 281 281 281 281 280 280 280 281 282 281 280 280 278 278 277 277 278 278 279 280 282 282 281 279 278 276 274 274 274 272 270 269 270 270 271 271 269 267 266 265 265 266
279 281 281 280 281 280 280 281 281 282 281 280 279 277 278 278 277 276 277 279 280 281 280 280 279 279 278 276 275 274 272 271 271 271 271 271 270 269 267 266 266 267 268
277 279 280 280 281 280 280 280 280 281 281 280 279 277 278 279 278 278 277 278 279 280 280 279 277 277 279 278 277 276 274 273 271 271 270 270 270 270 269 268 268 268 269
Height
5850 5849 5848 5848 5847 5846 5846 5846 5845 5845 5844 5844 5843 5842 5842 5841 5841 5840 5839 5839 5838 5837 5837 5836 5836 5836 5836 5835 5835 5834 5834 5833 5832 5832 5832 5833 5833 5834 5835 5836 5836 5837 5838
5848 5847 5846 5846 5845 5844 5844 5843 5843 5842 5841 5841 5840 5839 5839 5838 5838 5837 5836 5836 5835 5834 5833 5833 5833 5833 5833 5832 5832 5831 5831 5831 5830 5830 5831 5831 5831 5832 5833 5833 5834 5834 5835
5845 5845 5844 5844 5843 5842 5841 5840 5840 5839 5839 5838 5837 5836 5836 5835 5834 5834 5833 5832 5831 5831 5830 5829 5829 5829 5829 5829 5829 5828 5828 5828 5828 5828 5828 5828 5829 5830 5830 5831 5831 5832 5833
5843 5842 5842 5841 5840 5839 5838 5838 5837 5836 5836 5835 5834 5833 5832 5831 5831 5830 5829 5828 5827 5826 5826 5825 5825 5826 5826 5826 5825 5825 5825 5825 5825 5825 5825 5826 5826 5826 5827 5828 5828 5829 5829
5839 5839 5839 5838 5837 5836 5836 5835 5834 5833 5832 5832 5831 5830 5829 5828 5827 5826 5825 5824 5823 5822 5821 5821 5821 5822 5822 5822 5821 5821 5821 5821 5822 5822 5822 5822 5823 5823 5824 5824 5825 5825 5826
5836 5836 5835 5834 5834 5833 5832 5832 5831 5830 5829 5828 5827 5826 5825 5824 5823 5822 5821 5819 5818 5817 5817 5816 5816 5817 5818 5818 5817 5817 5818 5818 5818 5818 5819 5819 5819 5820 5820 5821 5821 5822 5823
5832 5832 5831 5831 5830 5829 5829 5828 5827 5826 5825 5824 5823 5822 5821 5819 5818 5817 5816 5815 5813 5813 5812 5812 5812 5812 5813 5813 5813 5813 5813 5814 5814 5814 5815 5815 5815 5816 5816 5817 5817 5818 5819
5828 5828 5827 5826 5826 5825 5825 5824 5823 5822 5821 5820 5819 5818 5817 5816 5814 5812 5810 5809 5808 5807 5807 5806 5806 5807 5807 5808 5808 5809 5809 5809 5810 5810 5811 5811 5811 5812 5812 5812 5813 5814 5815
5824 5823 5823 5822 5821 5821 5820 5819 5818 5817 5816 5815 5814 5813 5812 5811 5810 5808 5806 5804 5803 5802 5801 5800 5800 5801 5801 5802 5803 5803 5804 5805 5805 5805 5806 5806 5807 5807 5807 5808 5808 5809 5810
5819 5818 5818 5818 5817 5816 5815 5814 5813 5812 5811 5810 5808 5807 5806 5804 5803 5803 5801 5799 5797 5796 5795 5794 5794 5794 5795 5795 5797 5797 5798 5799 5800 5801 5801 5801 5802 5802 5802 5803 5803 5804 5805
5814 5813 5813 5812 5812 5811 5810 5809 5808 5806 5805 5804 5803 5802 5800 5799 5797 5796 5795 5793 5791 5789 5788 5787 5787 5787 5788 5789 5790 5791 5792 5793 5794 5795 5795 5796 5796 5797 5797 5798 5798 5799 5800
5809 5808 5807 5806 5806 5805 5804 5803 5802 5801 5799 5798 5797 5796 5794 5793 5791 5789 5788 5786 5785 5783 5782 5781 5780 5780 5781 5782 5783 5785 5786 5787 5788 5789 5790 5790 5791 5792 5792 5792 5793 5794 5794
5803 5802 5801 5800 5800 5799 5798 5797 5796 5794 5793 5792 5791 5790 5788 5787 5785 5783 5781 5780 5778 5777 5776 5775 5774 5774 5774 5775 5776 5778 5780 5781 5782 5783 5784 5785 5785 5786 5786 5787 5787 5788 5789
5796 5795 5795 5794 5793 5792 5791 5790 5789 5788 5787 5786 5785 5783 5782 5780 5778 5777 5775 5773 5772 5771 5770 5769 5768 5768 5768 5769 5770 5772 5773 5774 5775 5777 5778 5778 5779 5780 5780 5781 5781 5782 5783
5789 5788 5788 5787 5786 5785 5784 5783 5783 5782 5780 5779 5778 5777 5775 5774 5772 5770 5768 5767 5766 5765 5765 5763 5763 5762 5762 5763 5764 5765 5766 5768 5769 5770 5771 5772 5772 5773 5774 5774 5775 5776 5776
5782 5781 5780 5780 5779 5778 5777 5776 5775 5774 5774 5772 5771 5770 5769 5767 5765 5764 5762 5761 5760 5759 5759 5758 5758 5757 5757 5757 5758 5759 5760 5761 5762 5763 5764 5765 5765 5766 5767 5767 5768 5769 5769
5775 5774 5773 5773 5772 5771 5770 5769 5768 5767 5766 5765 5764 5763 5762 5761 5759 5758 5756 5755 5754 5753 5753 5753 5752 5751 5751 5752 5752 5753 5754 5754 5755 5756 5757 5758 5758 5759 5759 5760 5761 5762 5763
5767 5767 5766 5765 5765 5764 5762 5761 5760 5759 5758 5758 5757 5756 5756 5754 5753 5752 5750 5749 5748 5747 5747 5746 5746 5745 5745 5745 5746 5746 5747 5748 5748 5749 5749 5750 5751 5751 5751 5752 5753 5754 5755
5760 5759 5758 5758 5757 5756 5755 5754 5753 5752 5751 5750 5750 5749 5749 5748 5747 5745 5744 5743 5742 5741 5740 5740 5740 5739 5739 5739 5739 5740 5740 5741 5741 5741 5742 5742 5743 5743 5743 5744 5745 5746 5747
5753 5752 5751 5750 5750 5749 5748 5747 5745 5744 5744 5743 5742 5742 5741 5741 5740 5738 5737 5736 5735 5734 5733 5733 5732 5732 5732 5732 5732 5733 5733 5733 5734 5734 5734 5734 5735 5735 5736 5737 5738 5739 5739
5746 5745 5744 5743 5742 5741 5740 5739 5738 5737 5736 5735 5735 5734 5734 5733 5732 5731 5730 5729 5728 5727 5726 5725 5725 5725 5725 5724 5725 5725 5725 5726 5726 5726 5726 5727 5727 5728 5728 5728 5729 5730 5731
5739 5738 5737 5736 5735 5734 5732 5731 5730 5729 5728 5727 5726 5726 5725 5725 5724 5723 5722 5721 5720 5720 5719 5718 5717 5717 5717 5716 5716 5716 5717 5718 5718 5718 5718 5719 5719 5720 5720 5721 5721 5722 5722
5732 5731 5729 5728 5727 5726 5724 5723 5722 5721 5720 5719 5718 5717 5717 5716 5716 5715 5714 5713 5712 5711 5711 5710 5709 5709 5708 5708 5708 5708 5708 5709 5709 5710 5710 5710 5710 5711 5711 5711 5712 5713 5714
5724 5723 5721 5720 5719 5717 5716 5715 5714 5712 5711 5710 5709 5708 5708 5707 5707 5706 5705 5705 5704 5703 5702 5701 5701 5700 5700 5699 5699 5700 5699 5700 5700 5700 5700 5701 5701 5701 5701 5702 5703 5704 5704
5715 5714 5713 5712 5711 5709 5708 5707 5705 5704 5702 5702 5701 5700 5699 5698 5698 5697 5697 5696 5695 5694 5693 5692 5692 5691 5691 5690 5690 5690 5690 5690 5691 5691 5690 5690 5691 5691 5692 5692 5693 5693 5694
5706 5705 5704 5703 5702 5701 5699 5698 5697 5695 5694 5693 5692 5691 5690 5689 5688 5687 5687 5686 5686 5685 5684 5683 5683 5682 5681 5681 5680 5680 5680 5680 5680 5680 5680 5680 5680 5680 5682 5682 5682 5682 5683